Weather Roundup
Issued by NWS Corpus Christi, TX

Home | Current Version | Previous Version | Text Only | Print | Product List | Glossary On
Versions: 1 2 3 4 5 6 7 8 9 10 11 12 13 14 15 16 17 18 19 20 21 22 23 24 25 26 27 28 29 30 31 32 33 34 35 36 37 38 39 40 41 42 43 44 45 46 47 48 49 50
000
ASUS44 KCRP 041410
HRRCRP

SOUTH TEXAS REGIONAL WEATHER ROUNDUP
NATIONAL WEATHER SERVICE CORPUS CHRISTI TX
900 AM CDT WED MAY 04 2016


TXZ229>244-041500-
...CORPUS CHRISTI AREA OBSERVATIONS...

CITY           SKY/WX    TMP DP  RH WIND       PRES   REMARKS
CORPUS CHRISTI MOSUNNY   69  51  52 N8        30.10R
NAS CORPUS CHR MOSUNNY   71  59  65 N13       30.09R
ROCKPORT       SUNNY     69  52  54 N10       30.10R
KINGSVILLE NAS MOSUNNY   68  55  63 N7        30.10R
ALICE          SUNNY     69  50  50 N8        30.10R
FALFURRIAS     NOT AVBL
$$

...VICTORIA AREA OBSERVATIONS...

CITY           SKY/WX    TMP DP  RH WIND       PRES   REMARKS
VICTORIA       SUNNY     65  55  70 NW7       30.12R
BEEVILLE       FAIR      69  53  58 CALM      30.11R
PLEASANTON     SUNNY     64  53  67 NW5       30.14R
SAN ANTONIO    SUNNY     65  52  62 NW3       30.13R
$$

...LAREDO AREA OBSERVATIONS...

CITY           SKY/WX    TMP DP  RH WIND       PRES   REMARKS
LAREDO         SUNNY     69  55  60 NE5       30.14R
COTULLA        SUNNY     71  46  40 CALM      30.13S
DEL RIO        SUNNY     65  51  60 SE3       30.15R
MCALLEN        MOSUNNY   76  57  51 N12       30.10R
HEBBRONVILLE   SUNNY     68  50  51 N5        30.13S
$$

...OTHER TEXAS OBSERVATIONS...

CITY           SKY/WX    TMP DP  RH WIND       PRES   REMARKS
BROWNSVILLE    MOSUNNY   72  60  66 NW9       30.08R
HOUSTON        SUNNY     64  54  69 CALM      30.09R
COL. STATION   SUNNY     62  52  69 W7        30.11R
AUSTIN         SUNNY     64  53  67 CALM      30.12R
WACO           SUNNY     63  53  70 CALM      30.10S
FORT WORTH     SUNNY     65  54  67 W10       30.07S
WICHITA FALLS  SUNNY     59  51  75 NW12      30.10R
LUBBOCK        SUNNY     55  43  63 NW12      30.22R
EL PASO        SUNNY     64  36  35 E3        30.24R
$$

...MARINE OBSERVATIONS...

STATION/POSITION TIME  SKY/WX   TEMP    WIND        PRES    VSBY  WAVE   SWELL
                                AIR SEA DIR/SP/G                  HT/PER HT/PER
                 (UTC)          (F)     (DEG/KT/KT) (MB)    (MI)  (FT/S) (FT/S)
PORT ARANSAS     1400            68 76  350/ 11/ 12 1019.7R
BUOY 90 E PORT A 1350            72 76  360/ 14/ 17 1017.6R         3/ 5
BUOY 45 SE BAFFI 1350            72 74   20/ 14/ 16 1017.6R         3/ 6   2/ 7
BUOY 200 E PT IS 1350                                 N/A           5/ 6
BUOY 15 E GALVES 1350            69 74  340/ 12/ 14 1017.8R         2/ 4
$$



USA.gov is the U.S. government's official web portal to all federal, state and local government web resources and services.